Regional Weather Roundup
Issued by NWS Grand Forks, ND

Home | Current Version | Previous Version | Text Only | Print | Product List | Glossary Off
Versions: 1 2 3 4 5 6 7 8 9 10 11 12 13 14 15 16 17 18 19 20 21 22 23 24 25 26 27 28 29 30 31 32 33 34 35 36 37 38 39 40 41 42 43 44 45 46 47 48 49 50

000
ASUS43 KFGF 020010
RWRFGF
PRAIRIE TO PINES  WEATHER ROUNDUP
NATIONAL WEATHER SERVICE EASTERN NORTH DAKOTA/GRAND FORKS ND
700 PM CDT MON JUN 01 2015

 **SATELLITE DATA USED TO AUGMENT SKY COVER AT AUTOMATED STATIONS**
 *****  WEATHER ACROSS EASTERN NORTH DAKOTA  *****

CITY           SKY/WX    TMP DP  RH WIND       PRES   REMARKS
GRAND FORKS    MOSUNNY   73  48  41 S21G30    29.91F
6HR MIN TEMP:  67; 6HR MAX TEMP:  74;

GRAND FRKS AFB MOSUNNY   73  50  43 S21G28    29.91F
GRAND FRKS NWS   N/A     72 N/A N/A S20         N/A
DEVILS LAKE    SUNNY     77  55  47 S21G26    29.83F
6HR MIN TEMP:  68; 6HR MAX TEMP:  79;

FARGO          SUNNY     74  47  38 S21G32    29.94F
WAHPETON ARPT  PTCLDY    72  45  37 SE16G25   29.97F
$$

 ***** WEATHER ACROSS CENTRAL AND WESTERN NORTH DAKOTA  *****

CITY           SKY/WX    TMP DP  RH WIND       PRES   REMARKS
BISMARCK       PTSUNNY   80  58  46 S14G25    29.81F
6HR MIN TEMP:  70; 6HR MAX TEMP:  84;

MINOT          PTSUNNY   81  56  42 S10G20    29.75S
6HR MIN TEMP:  76; 6HR MAX TEMP:  84;

JAMESTOWN      MOSUNNY   77  58  51 S21G28    29.86F
6HR MIN TEMP:  69; 6HR MAX TEMP:  79;

MINOT AFB      PTSUNNY   79  62  54 S9        29.73F
GARRISON         N/A     81  58  45 S13       29.76F
WILLISTON      PTSUNNY   87  52  29 N17       29.74S
6HR MIN TEMP:  80; 6HR MAX TEMP:  91;

DICKINSON      MOSUNNY   83  60  45 SE15G21   29.78F
6HR MIN TEMP:  79; 6HR MAX TEMP:  85;

HETTINGER      SUNNY     80  60  50 SE14G22   29.82F
6HR MIN TEMP:  76; 6HR MAX TEMP:  83;

$$

 *****  OTHER AIRPORT OBSERVATIONS IN OUR AREA  *****

CITY           SKY/WX    TMP DP  RH WIND       PRES   REMARKS
WALHALLA       FAIR      73  52  46 MISG      29.86F
GRAFTON AIRPOR FAIR      73  52  46 S22G31    29.90F
VALLEY CITY AR FAIR      75  55  50 S23G30    29.89F
CANDO          FAIR      77  55  47 S23G30    29.82F
CAVALIER APRT  FAIR      73  50  43 S20G30    29.87F
GWINNER        NOT AVBL
SHEYENNE NWR     N/A     77  53  43 S16       29.95S
ROLLA          FAIR      75  54  46 S20G29    29.81F
 ***** THE ABOVE OBSERVATIONS ARE NON NWS ARE NOT QUALITY
       CONTROLLED AND MAY MIS-REPORT RAIN FOR SNOW...
$$

  *****  WEATHER ACROSS NORTHERN MINNESOTA  *****

CITY           SKY/WX    TMP DP  RH WIND       PRES   REMARKS
FLAG ISLAND    CLOUDY    63  52  67 S13       30.00S
WARROAD        CLOUDY    66  48  52 S13       30.01S
ROSEAU         CLOUDY    68  46  45 S12       29.99S
HALLOCK        PTSUNNY   73  45  35 S28       29.92F
THF RVR FALLS  CLOUDY    68  43  40 S20G28    29.98F
6HR MIN TEMP:  64; 6HR MAX TEMP:  70;

BAUDETTE       CLOUDY    65  42  43 S10       30.02F
6HR MIN TEMP:  65; 6HR MAX TEMP:  70; 6HR PCP: TRACE;

WASKISH        PTSUNNY   66  43  42 SE6       30.04F
CROOKSTON      MOSUNNY   72  46  40 S21G30    29.96F
STEPHEN NDAWN    N/A     73  46  38 S22         N/A
GREENBUSH NDAW   N/A     70  46  43 S16         N/A
$$
  *****  WEATHER ACROSS CENTRAL AND WEST MINNESOTA  *****

CITY           SKY/WX    TMP DP  RH WIND       PRES   REMARKS
FOSSTON        PTSUNNY   66  45  45 SE16G23   30.02S
BEMIDJI        PTSUNNY   66  41  40 SE14      30.05S
PARK RAPIDS    PTSUNNY   68  40  35 S18G25    30.06F
6HR MIN TEMP:  67; 6HR MAX TEMP:  71;

ELBOW LAKE     FAIR      71  47  41 SE18G26   30.01F
6HR MIN TEMP:  65; 6HR MAX TEMP:  73;

WADENA         PTSUNNY   66  45  45 S17G24    30.06S
DETROIT LAKES  MOSUNNY   68  45  42 S15G24    30.03F
MOORHEAD       SUNNY     73  45  35 S22G30    29.96F
FERGUS FALLS   MOSUNNY   73  45  35 S21G29    30.00F
MORRIS MN      PTSUNNY   75  46  35 SE23      30.00F
STAPLES        PTSUNNY   66  37  34 SE10G16   30.08S
$$
  *****  WEATHER ELSEWHERE ACROSS MINNESOTA  *****

CITY           SKY/WX    TMP DP  RH WIND       PRES   REMARKS
DULUTH         MOSUNNY   57  34  41 E15       30.16S
6HR MIN TEMP:  57; 6HR MAX TEMP:  61;

INTRNTL FALLS  PTSUNNY   67  36  31 VRB5      30.05S
6HR MIN TEMP:  66; 6HR MAX TEMP:  71;

ELY            MOSUNNY   64  34  32 SE12G17   30.13S
CLOQUET        MOSUNNY   54  32  43 E7        30.16S
WHEATON        PTSUNNY   73  45  35 SE16G22   29.99F
BRAINERD       PTSUNNY   66  34  30 S14G22    30.11S
6HR MIN TEMP:  64; 6HR MAX TEMP:  68;

HIBBING        CLOUDY    66  36  32 S10G23    30.11S
6HR MIN TEMP:  65; 6HR MAX TEMP:  69;

ALEXANDRIA     MOSUNNY   69  43  38 SE14G28   30.06F
6HR MIN TEMP:  65; 6HR MAX TEMP:  70;

SAINT CLOUD    MOSUNNY   66  37  34 SE12      30.11F
6HR MIN TEMP:  65; 6HR MAX TEMP:  69;

MINNEAPOLIS    PTSUNNY   68  39  34 SE10      30.13F
6HR MIN TEMP:  63; 6HR MAX TEMP:  69;

$$

  *****  WEATHER ACROSS SOUTH DAKOTA  *****

CITY           SKY/WX    TMP DP  RH WIND       PRES   REMARKS
SIOUX FALLS    MOSUNNY   75  51  43 S15G22    30.01F
6HR MIN TEMP:  71; 6HR MAX TEMP:  76;

BROOKINGS      SUNNY     75  48  38 S16G22    30.01F
WATERTOWN      MOSUNNY   74  48  39 S16       29.98F
6HR MIN TEMP:  71; 6HR MAX TEMP:  76;

HURON          MOSUNNY   79  57  46 S17G25    29.92F
6HR MIN TEMP:  74; 6HR MAX TEMP:  81;

SISSETON         N/A     77  48  35 S17       29.95F
ABERDEEN       PTSUNNY   80  59  48 S21G29    29.90F
6HR MIN TEMP:  74; 6HR MAX TEMP:  82;

MITCHELL       SUNNY     80  56  43 S17G24    29.95F
PIERRE         PTSUNNY   81  63  54 SE17      29.83F
6HR MIN TEMP:  77; 6HR MAX TEMP:  84;

MOBRIDGE       SUNNY     84  61  45 S14       29.80F
RAPID CITY     PTSUNNY   82  59  45 SE14      29.81F
6HR MIN TEMP:  78; 6HR MAX TEMP:  86;

$$

  *****  SOME WEATHER IN NEARBY STATES *****

CITY           SKY/WX    TMP DP  RH WIND       PRES   REMARKS
GLASGOW MT     MOSUNNY   80  52  37 NE18      29.78S
6HR MIN TEMP:  78; 6HR MAX TEMP:  86;

GREAT FALLS MT CLOUDY    68  49  50 N8        29.86R
6HR MIN TEMP:  68; 6HR MAX TEMP:  76;

CHEYENNE WY    CLOUDY    71  46  40 W9        30.06F
6HR MIN TEMP:  69; 6HR MAX TEMP:  79;

SCOTTSBLUFF NE CLOUDY    69  57  65 E12       29.90F
6HR MIN TEMP:  66; 6HR MAX TEMP:  87; 6HR PCP:  0.03;

OMAHA NE       MOSUNNY   73  51  46 SE14      30.07S
6HR MIN TEMP:  70; 6HR MAX TEMP:  75;

DES MOINES IA  MOSUNNY   71  46  40 S9        30.11F
6HR MIN TEMP:  68; 6HR MAX TEMP:  73;

DAVENPORT IA   SUNNY     69  47  45 SE6       30.16S
6HR MIN TEMP:  66; 6HR MAX TEMP:  71;

CHICAGO IL     MOSUNNY   56  34  43 NE13      30.21R
6HR MIN TEMP:  56; 6HR MAX TEMP:  60;

EAU CLAIRE WI  SUNNY     67  40  37 SE8       30.16S
6HR MIN TEMP:  63; 6HR MAX TEMP:  70;

LA CROSSE WI   SUNNY     70  35  27 E7        30.16S
6HR MIN TEMP:  67; 6HR MAX TEMP:  71;

$$

  *****  SOME NATIONAL WEATHER *****

CITY           SKY/WX    TMP DP  RH WIND       PRES   REMARKS
LA GUARDIA NY  DRIZZLE   54  52  93 NE18      30.11F FOG
6HR MIN TEMP:  54; 6HR MAX TEMP:  56; 6HR PCP:  0.01;

RALEIGH NC     CLOUDY    71  68  90 CALM      30.01S
6HR MIN TEMP:  70; 6HR MAX TEMP:  90; 6HR PCP:  0.08;

ATLANTA GA     CLOUDY    74  66  76 S3        30.01F
6HR MIN TEMP:  74; 6HR MAX TEMP:  80; 6HR PCP:  0.03;

NEW ORLEANS LA PTSUNNY   80  68  66 SW10      29.98R
6HR MIN TEMP:  80; 6HR MAX TEMP:  88;

OKLAHOMA CITY  MOSUNNY   80  62  54 SE10      30.01F
6HR MIN TEMP:  76; 6HR MAX TEMP:  82;

ALBUQUERQUE NM PTSUNNY   78  42  27 SW17G32   30.11R
6HR MIN TEMP:  78; 6HR MAX TEMP:  90;

SALT LAKE CITY PTSUNNY   89  31  12 SW18      29.78F
6HR MIN TEMP:  84; 6HR MAX TEMP:  92;




USA.gov is the U.S. government's official web portal to all federal, state and local government web resources and services.